Powrót do katalogu

STARLINK-1347

AktywnyŁącznośćVLEO
NORAD 45586·PAYLOAD·🇺🇸 United States

Wystrzelony Apr 22, 2020 z Cape Canaveral Space Force Station

Loading…

Następne Przeloty (najbliższe 24 godziny)

TLE

ŚwieżeSource: CelesTrak SupGP

Epoka: Sep 14, 2026, 20:57 UTC

1 45586C 20025BH  26257.87340278  .00079884  00000+0  38304-3 0  2571
2 45586  53.0325 175.4882 0005259 104.6221 188.3842 15.81950981    12

Śledź STARLINK-1347 w czasie rzeczywistym z AllMySat

Download on the App Store